Time,TemperatureF,DewpointF,PressureIn,WindDirection,WindDirectionDegrees,WindSpeedMPH,WindSpeedGustMPH,Humidity,HourlyPrecipIn,Conditions,Clouds,dailyrainin,SoftwareType,DateUTC
2013-03-29 00:00:00,33.4,25.0,30.16,ENE,61,0.0,0.0,71,0.00,,SKC,0.00,VWS V14.01,2013-03-29 04:00:00,
2013-03-29 00:13:00,35.9,24.2,30.16,ENE,61,0.0,0.0,62,0.00,,SKC,0.00,VWS V14.01,2013-03-29 04:13:00,
2013-03-29 00:18:00,35.8,24.5,30.16,ENE,61,0.0,0.0,63,0.00,,SKC,0.00,VWS V14.01,2013-03-29 04:18:00,
2013-03-29 00:23:00,35.5,24.2,30.16,ENE,61,0.0,0.0,63,0.00,,SKC,0.00,VWS V14.01,2013-03-29 04:23:00,
2013-03-29 00:29:00,35.0,24.1,30.16,ENE,61,0.0,0.0,64,0.00,,SKC,0.00,VWS V14.01,2013-03-29 04:29:00,
2013-03-29 00:34:00,34.4,23.9,30.16,ENE,61,0.0,0.0,65,0.00,,SKC,0.00,VWS V14.01,2013-03-29 04:34:00,
2013-03-29 00:39:00,34.1,24.3,30.16,ENE,61,0.0,0.0,67,0.00,,SKC,0.00,VWS V14.01,2013-03-29 04:39:00,
2013-03-29 00:44:00,34.0,24.6,30.16,ENE,61,0.0,0.0,68,0.00,,SKC,0.00,VWS V14.01,2013-03-29 04:44:00,
2013-03-29 00:49:00,33.7,24.6,30.16,ENE,61,0.0,0.0,69,0.00,,SKC,0.00,VWS V14.01,2013-03-29 04:49:00,
2013-03-29 00:54:00,33.5,24.8,30.16,ENE,61,0.0,0.0,70,0.00,,SKC,0.00,VWS V14.01,2013-03-29 04:54:00,
2013-03-29 00:59:00,33.4,25.0,30.16,ENE,61,0.0,0.0,71,0.00,,SKC,0.00,VWS V14.01,2013-03-29 04:59:00,
2013-03-29 01:00:00,35.2,25.4,30.15,ENE,62,0.0,0.0,67,0.00,,SKC,0.00,VWS V14.01,2013-03-29 05:00:00,
2013-03-29 01:04:00,33.4,25.0,30.16,ENE,61,0.0,0.0,71,0.00,,SKC,0.00,VWS V14.01,2013-03-29 05:04:00,
2013-03-29 01:09:00,33.4,24.7,30.16,ENE,61,0.0,0.0,70,0.00,,SKC,0.00,VWS V14.01,2013-03-29 05:09:00,
2013-03-29 01:14:00,33.5,24.8,30.16,ENE,62,0.0,0.0,70,0.00,,SKC,0.00,VWS V14.01,2013-03-29 05:14:00,
2013-03-29 01:19:00,33.8,24.7,30.16,ENE,61,0.0,0.0,69,0.00,,SKC,0.00,VWS V14.01,2013-03-29 05:19:00,
2013-03-29 01:24:00,34.0,24.9,30.16,ENE,61,0.0,0.0,69,0.00,,SKC,0.00,VWS V14.01,2013-03-29 05:24:00,
2013-03-29 01:29:00,34.3,25.2,30.16,ENE,61,0.0,0.0,69,0.00,,SKC,0.00,VWS V14.01,2013-03-29 05:29:00,
2013-03-29 01:34:00,34.3,25.2,30.16,ENE,62,0.0,0.0,69,0.00,,SKC,0.00,VWS V14.01,2013-03-29 05:34:00,
2013-03-29 01:39:00,34.6,25.1,30.16,ENE,61,0.0,0.0,68,0.00,,SKC,0.00,VWS V14.01,2013-03-29 05:39:00,
2013-03-29 01:45:00,34.6,25.1,30.16,ENE,61,0.0,0.0,68,0.00,,SKC,0.00,VWS V14.01,2013-03-29 05:45:00,
2013-03-29 01:50:00,34.7,25.2,30.16,ENE,61,0.0,0.0,68,0.00,,SKC,0.00,VWS V14.01,2013-03-29 05:50:00,
2013-03-29 01:55:00,35.0,25.5,30.16,ENE,61,0.0,0.0,68,0.00,,SKC,0.00,VWS V14.01,2013-03-29 05:55:00,
2013-03-29 02:00:00,35.2,25.4,30.15,ENE,61,0.0,0.0,67,0.00,,SKC,0.00,VWS V14.01,2013-03-29 06:00:00,
2013-03-29 02:05:00,35.3,25.5,30.15,ENE,61,0.0,0.0,67,0.00,,SKC,0.00,VWS V14.01,2013-03-29 06:05:00,
2013-03-29 02:10:00,35.5,25.6,30.15,ENE,62,0.0,0.0,67,0.00,,SKC,0.00,VWS V14.01,2013-03-29 06:10:00,
2013-03-29 02:15:00,35.5,25.6,30.15,ENE,61,0.0,0.0,67,0.00,,SKC,0.00,VWS V14.01,2013-03-29 06:15:00,
2013-03-29 02:20:00,35.6,25.7,30.15,ENE,62,0.0,0.0,67,0.00,,SKC,0.00,VWS V14.01,2013-03-29 06:20:00,
2013-03-29 02:25:00,35.6,25.7,30.15,ENE,62,0.0,0.0,67,0.00,,SKC,0.00,VWS V14.01,2013-03-29 06:25:00,
2013-03-29 02:30:00,35.5,26.0,30.15,ENE,61,0.0,0.0,68,0.00,,SKC,0.00,VWS V14.01,2013-03-29 06:30:00,
2013-03-29 02:35:00,35.5,26.0,30.15,ENE,61,0.0,0.0,68,0.00,,SKC,0.00,VWS V14.01,2013-03-29 06:35:00,
2013-03-29 02:40:00,35.5,26.0,30.15,ENE,62,0.0,0.0,68,0.00,,SKC,0.00,VWS V14.01,2013-03-29 06:40:00,
2013-03-29 02:46:00,35.5,26.0,30.15,ENE,61,0.0,0.0,68,0.00,,SKC,0.00,VWS V14.01,2013-03-29 06:46:00,
2013-03-29 02:51:00,35.5,26.4,30.15,ENE,61,0.0,0.0,69,0.00,,SKC,0.00,VWS V14.01,2013-03-29 06:51:00,
2013-03-29 02:56:00,35.5,26.4,30.15,ENE,62,0.0,0.0,69,0.00,,SKC,0.00,VWS V14.01,2013-03-29 06:56:00,
2013-03-29 03:00:00,35.3,26.2,30.13,ENE,61,0.0,0.0,69,0.00,,SKC,0.00,VWS V14.01,2013-03-29 07:00:00,
2013-03-29 03:02:00,35.5,26.4,30.15,ENE,61,0.0,0.0,69,0.00,,SKC,0.00,VWS V14.01,2013-03-29 07:02:00,
2013-03-29 03:07:00,35.5,26.4,30.15,ENE,61,0.0,0.0,69,0.00,,SKC,0.00,VWS V14.01,2013-03-29 07:07:00,
2013-03-29 03:12:00,35.5,26.4,30.15,ENE,61,0.0,0.0,69,0.00,,SKC,0.00,VWS V14.01,2013-03-29 07:12:00,
2013-03-29 03:17:00,35.5,26.4,30.14,ENE,61,0.0,0.0,69,0.00,,SKC,0.00,VWS V14.01,2013-03-29 07:17:00,
2013-03-29 03:22:00,35.3,26.2,30.14,ENE,61,0.0,0.0,69,0.00,,SKC,0.00,VWS V14.01,2013-03-29 07:22:00,
2013-03-29 03:27:00,35.3,26.5,30.14,ENE,61,0.0,0.0,70,0.00,,SKC,0.00,VWS V14.01,2013-03-29 07:27:00,
2013-03-29 03:32:00,35.3,26.2,30.14,ENE,61,0.0,0.0,69,0.00,,SKC,0.00,VWS V14.01,2013-03-29 07:32:00,
2013-03-29 03:37:00,35.3,26.5,30.14,ENE,62,0.0,0.0,70,0.00,,SKC,0.00,VWS V14.01,2013-03-29 07:37:00,
2013-03-29 03:42:00,35.3,26.5,30.14,ENE,61,0.0,0.0,70,0.00,,SKC,0.00,VWS V14.01,2013-03-29 07:42:00,
2013-03-29 03:47:00,35.3,26.5,30.14,ENE,61,0.0,0.0,70,0.00,,SKC,0.00,VWS V14.01,2013-03-29 07:47:00,
2013-03-29 03:52:00,35.3,26.5,30.14,ENE,61,0.0,0.0,70,0.00,,SKC,0.00,VWS V14.01,2013-03-29 07:52:00,
2013-03-29 03:57:00,35.3,26.5,30.14,ENE,61,0.0,0.0,70,0.00,,SKC,0.00,VWS V14.01,2013-03-29 07:57:00,
2013-03-29 04:00:00,34.9,26.5,30.13,ENE,61,0.0,0.0,71,0.00,,SKC,0.00,VWS V14.01,2013-03-29 08:00:00,
2013-03-29 04:02:00,35.3,26.2,30.13,ENE,61,0.0,0.0,69,0.00,,SKC,0.00,VWS V14.01,2013-03-29 08:02:00,
2013-03-29 04:07:00,35.5,26.4,30.13,ENE,61,0.0,0.0,69,0.00,,SKC,0.00,VWS V14.01,2013-03-29 08:07:00,
2013-03-29 04:12:00,35.5,26.4,30.13,ENE,61,0.0,0.0,69,0.00,,SKC,0.00,VWS V14.01,2013-03-29 08:12:00,
2013-03-29 04:18:00,35.5,26.4,30.13,ENE,61,0.0,0.0,69,0.00,,SKC,0.00,VWS V14.01,2013-03-29 08:18:00,
2013-03-29 04:23:00,35.5,26.4,30.13,ENE,61,0.0,0.0,69,0.00,,SKC,0.00,VWS V14.01,2013-03-29 08:23:00,
2013-03-29 04:28:00,35.3,26.2,30.13,ENE,61,0.0,0.0,69,0.00,,SKC,0.00,VWS V14.01,2013-03-29 08:28:00,
2013-03-29 04:33:00,35.3,26.5,30.13,ENE,61,0.0,0.0,70,0.00,,SKC,0.00,VWS V14.01,2013-03-29 08:33:00,
2013-03-29 04:38:00,35.2,26.4,30.13,ENE,61,0.0,0.0,70,0.00,,SKC,0.00,VWS V14.01,2013-03-29 08:38:00,
2013-03-29 04:43:00,35.2,26.4,30.13,ENE,62,0.0,0.0,70,0.00,,SKC,0.00,VWS V14.01,2013-03-29 08:43:00,
2013-03-29 04:48:00,35.2,26.4,30.13,ENE,61,0.0,0.0,70,0.00,,SKC,0.00,VWS V14.01,2013-03-29 08:48:00,
2013-03-29 04:53:00,35.0,26.2,30.13,ENE,61,0.0,0.0,70,0.00,,SKC,0.00,VWS V14.01,2013-03-29 08:53:00,
2013-03-29 04:58:00,34.9,26.1,30.13,ENE,61,0.0,0.0,70,0.00,,SKC,0.00,VWS V14.01,2013-03-29 08:58:00,
2013-03-29 05:00:00,34.0,25.6,30.13,ENE,61,0.0,0.0,71,0.00,,SKC,0.00,VWS V14.01,2013-03-29 09:00:00,
2013-03-29 05:03:00,34.9,26.5,30.13,ENE,61,0.0,0.0,71,0.00,,SKC,0.00,VWS V14.01,2013-03-29 09:03:00,
2013-03-29 05:08:00,34.7,26.3,30.13,ENE,61,0.0,0.0,71,0.00,,SKC,0.00,VWS V14.01,2013-03-29 09:08:00,
2013-03-29 05:13:00,34.7,26.3,30.13,ENE,61,0.0,0.0,71,0.00,,SKC,0.00,VWS V14.01,2013-03-29 09:13:00,
2013-03-29 05:18:00,34.7,26.3,30.13,ENE,61,0.0,0.0,71,0.00,,SKC,0.00,VWS V14.01,2013-03-29 09:18:00,
2013-03-29 05:23:00,34.7,26.3,30.13,ENE,61,0.0,0.0,71,0.00,,SKC,0.00,VWS V14.01,2013-03-29 09:23:00,
2013-03-29 05:28:00,34.7,26.3,30.13,ENE,61,0.0,0.0,71,0.00,,SKC,0.00,VWS V14.01,2013-03-29 09:28:00,
2013-03-29 05:33:00,34.7,25.9,30.13,ENE,61,0.0,0.0,70,0.00,,SKC,0.00,VWS V14.01,2013-03-29 09:33:00,
2013-03-29 05:38:00,34.6,25.8,30.13,ENE,61,0.0,0.0,70,0.00,,SKC,0.00,VWS V14.01,2013-03-29 09:38:00,
2013-03-29 05:43:00,34.6,26.2,30.13,ENE,61,0.0,0.0,71,0.00,,SKC,0.00,VWS V14.01,2013-03-29 09:43:00,
2013-03-29 05:48:00,34.4,26.0,30.13,ENE,61,0.0,0.0,71,0.00,,SKC,0.00,VWS V14.01,2013-03-29 09:48:00,
2013-03-29 05:54:00,34.3,25.9,30.13,ENE,61,0.0,0.0,71,0.00,,SKC,0.00,VWS V14.01,2013-03-29 09:54:00,
2013-03-29 05:59:00,34.1,25.7,30.13,ENE,61,0.0,0.0,71,0.00,,SKC,0.00,VWS V14.01,2013-03-29 09:59:00,
2013-03-29 06:00:00,33.1,25.1,30.14,ENE,61,0.0,0.0,72,0.00,,SKC,0.00,VWS V14.01,2013-03-29 10:00:00,
2013-03-29 06:04:00,34.0,25.6,30.13,ENE,61,0.0,0.0,71,0.00,,SKC,0.00,VWS V14.01,2013-03-29 10:04:00,
2013-03-29 06:09:00,34.0,25.9,30.13,ENE,61,0.0,0.0,72,0.00,,SKC,0.00,VWS V14.01,2013-03-29 10:09:00,
2013-03-29 06:14:00,33.8,25.7,30.13,ENE,62,0.0,0.0,72,0.00,,SKC,0.00,VWS V14.01,2013-03-29 10:14:00,
2013-03-29 06:19:00,33.8,25.7,30.14,ENE,61,0.0,0.0,72,0.00,,SKC,0.00,VWS V14.01,2013-03-29 10:19:00,
2013-03-29 06:24:00,33.7,25.6,30.14,ENE,61,0.0,0.0,72,0.00,,SKC,0.00,VWS V14.01,2013-03-29 10:24:00,
2013-03-29 06:29:00,33.5,25.8,30.14,ENE,61,0.0,0.0,73,0.00,,SKC,0.00,VWS V14.01,2013-03-29 10:29:00,
2013-03-29 06:34:00,33.4,25.7,30.14,ENE,61,0.0,0.0,73,0.00,,SKC,0.00,VWS V14.01,2013-03-29 10:34:00,
2013-03-29 06:39:00,33.4,25.4,30.14,ENE,61,0.0,0.0,72,0.00,,SKC,0.00,VWS V14.01,2013-03-29 10:39:00,
2013-03-29 06:44:00,33.4,25.4,30.14,ENE,61,0.0,0.0,72,0.00,,SKC,0.00,VWS V14.01,2013-03-29 10:44:00,
2013-03-29 06:49:00,33.4,25.4,30.14,ENE,61,0.0,0.0,72,0.00,,SKC,0.00,VWS V14.01,2013-03-29 10:49:00,
2013-03-29 06:54:00,33.2,25.2,30.14,ENE,61,0.0,0.0,72,0.00,,SKC,0.00,VWS V14.01,2013-03-29 10:54:00,
2013-03-29 06:59:00,33.2,25.2,30.14,ENE,61,0.0,0.0,72,0.00,,SKC,0.00,VWS V14.01,2013-03-29 10:59:00,
2013-03-29 07:00:00,31.5,25.1,30.15,ENE,61,0.0,0.0,77,0.00,,SKC,0.00,VWS V14.01,2013-03-29 11:00:00,
2013-03-29 07:04:00,33.1,25.1,30.14,ENE,61,0.0,0.0,72,0.00,,SKC,0.00,VWS V14.01,2013-03-29 11:04:00,
2013-03-29 07:09:00,32.8,25.1,30.14,ENE,61,0.0,0.0,73,0.00,,SKC,0.00,VWS V14.01,2013-03-29 11:09:00,
2013-03-29 07:15:00,32.7,25.0,30.15,ENE,61,0.0,0.0,73,0.00,,SKC,0.00,VWS V14.01,2013-03-29 11:15:00,
2013-03-29 07:20:00,32.4,25.0,30.15,ENE,61,0.0,0.0,74,0.00,,SKC,0.00,VWS V14.01,2013-03-29 11:20:00,
2013-03-29 07:25:00,32.1,24.8,30.15,ENE,61,0.0,0.0,74,0.00,,SKC,0.00,VWS V14.01,2013-03-29 11:25:00,
2013-03-29 07:30:00,31.9,24.9,30.15,ENE,62,0.0,0.0,75,0.00,,SKC,0.00,VWS V14.01,2013-03-29 11:30:00,
2013-03-29 07:35:00,31.8,24.8,30.15,ENE,61,0.0,0.0,75,0.00,,SKC,0.00,VWS V14.01,2013-03-29 11:35:00,
2013-03-29 07:40:00,31.6,24.6,30.15,ENE,61,0.0,0.0,75,0.00,,SKC,0.00,VWS V14.01,2013-03-29 11:40:00,
2013-03-29 07:45:00,31.6,24.9,30.15,ENE,61,0.0,0.0,76,0.00,,SKC,0.00,VWS V14.01,2013-03-29 11:45:00,
2013-03-29 07:50:00,31.5,24.8,30.15,ENE,62,0.0,0.0,76,0.00,,SKC,0.00,VWS V14.01,2013-03-29 11:50:00,
2013-03-29 07:55:00,31.5,25.1,30.15,ENE,61,0.0,0.0,77,0.00,,SKC,0.00,VWS V14.01,2013-03-29 11:55:00,
2013-03-29 08:00:00,31.5,25.1,30.15,ENE,61,0.0,0.0,77,0.00,,SKC,0.00,VWS V14.01,2013-03-29 12:00:00,
2013-03-29 08:05:00,31.5,25.4,30.15,ENE,61,0.0,0.0,78,0.00,,SKC,0.00,VWS V14.01,2013-03-29 12:05:00,
2013-03-29 08:10:00,31.6,25.2,30.15,ENE,61,0.0,0.0,77,0.00,,SKC,0.00,VWS V14.01,2013-03-29 12:10:00,
2013-03-29 08:15:00,31.8,25.4,30.16,ENE,61,0.0,0.0,77,0.00,,SKC,0.00,VWS V14.01,2013-03-29 12:15:00,
2013-03-29 08:20:00,32.1,25.7,30.16,ENE,62,0.0,0.0,77,0.00,,SKC,0.00,VWS V14.01,2013-03-29 12:20:00,
2013-03-29 08:25:00,32.4,26.0,30.16,ENE,61,0.0,0.0,77,0.00,,SKC,0.00,VWS V14.01,2013-03-29 12:25:00,
2013-03-29 08:30:00,32.7,26.0,30.16,ENE,61,0.0,0.0,76,0.00,,SKC,0.00,VWS V14.01,2013-03-29 12:30:00,
2013-03-29 08:35:00,32.9,26.2,30.16,ENE,61,0.0,0.0,76,0.00,,SKC,0.00,VWS V14.01,2013-03-29 12:35:00,
2013-03-29 08:41:00,33.1,26.0,30.16,ENE,61,0.0,0.0,75,0.00,,SKC,0.00,VWS V14.01,2013-03-29 12:41:00,
2013-03-29 08:46:00,33.4,26.3,30.16,ENE,61,0.0,0.0,75,0.00,,SKC,0.00,VWS V14.01,2013-03-29 12:46:00,
2013-03-29 08:51:00,33.8,26.7,30.16,ENE,61,0.0,0.0,75,0.00,,SKC,0.00,VWS V14.01,2013-03-29 12:51:00,
2013-03-29 08:56:00,34.4,27.3,30.16,ENE,61,0.0,0.0,75,0.00,,SKC,0.00,VWS V14.01,2013-03-29 12:56:00,
2013-03-29 09:00:00,40.2,27.4,30.15,NNE,26,0.0,8.0,60,0.00,,SKC,0.00,VWS V14.01,2013-03-29 13:00:00,
2013-03-29 09:02:00,34.6,26.9,30.16,ENE,62,0.0,0.0,73,0.00,,SKC,0.00,VWS V14.01,2013-03-29 13:02:00,
2013-03-29 09:07:00,34.7,26.6,30.16,ENE,61,0.0,0.0,72,0.00,,SKC,0.00,VWS V14.01,2013-03-29 13:07:00,
2013-03-29 09:12:00,35.2,27.1,30.16,ENE,62,0.0,4.0,72,0.00,,SKC,0.00,VWS V14.01,2013-03-29 13:12:00,
2013-03-29 09:17:00,35.6,26.8,30.16,ENE,62,0.0,4.0,70,0.00,,SKC,0.00,VWS V14.01,2013-03-29 13:17:00,
2013-03-29 09:22:00,36.2,27.0,30.16,ENE,61,0.0,5.0,69,0.00,,SKC,0.00,VWS V14.01,2013-03-29 13:22:00,
2013-03-29 09:27:00,36.8,26.9,30.16,ENE,62,3.0,5.0,67,0.00,,SKC,0.00,VWS V14.01,2013-03-29 13:27:00,
2013-03-29 09:33:00,37.0,26.3,30.15,ENE,62,3.0,6.0,65,0.00,,SKC,0.00,VWS V14.01,2013-03-29 13:33:00,
2013-03-29 09:38:00,37.5,26.5,30.15,NNE,22,0.0,6.0,64,0.00,,SKC,0.00,VWS V14.01,2013-03-29 13:38:00,
2013-03-29 09:43:00,38.0,26.9,30.15,NNE,26,0.0,8.0,64,0.00,,SKC,0.00,VWS V14.01,2013-03-29 13:43:00,
2013-03-29 09:48:00,38.6,27.1,30.15,NNE,26,0.0,8.0,63,0.00,,SKC,0.00,VWS V14.01,2013-03-29 13:48:00,
2013-03-29 09:53:00,39.2,27.3,30.15,NNE,26,0.0,8.0,62,0.00,,SKC,0.00,VWS V14.01,2013-03-29 13:53:00,
2013-03-29 09:58:00,39.9,27.6,30.15,NNE,26,2.0,8.0,61,0.00,,SKC,0.00,VWS V14.01,2013-03-29 13:58:00,
2013-03-29 10:00:00,44.6,27.1,30.14,ENE,65,0.0,8.0,50,0.00,,SKC,0.00,VWS V14.01,2013-03-29 14:00:00,
2013-03-29 10:03:00,40.5,27.3,30.15,NNE,26,2.0,5.0,59,0.00,,SKC,0.00,VWS V14.01,2013-03-29 14:03:00,
2013-03-29 10:08:00,40.9,27.7,30.15,NNE,26,3.0,5.0,59,0.00,,SKC,0.00,VWS V14.01,2013-03-29 14:08:00,
2013-03-29 10:13:00,41.1,27.5,30.15,NE,49,0.0,7.0,58,0.00,,SKC,0.00,VWS V14.01,2013-03-29 14:13:00,
2013-03-29 10:18:00,41.6,27.9,30.15,NE,49,2.0,7.0,58,0.00,,SKC,0.00,VWS V14.01,2013-03-29 14:18:00,
2013-03-29 10:23:00,41.9,27.4,30.15,NE,49,0.0,7.0,56,0.00,,SKC,0.00,VWS V14.01,2013-03-29 14:23:00,
2013-03-29 10:28:00,42.6,28.0,30.15,NE,54,3.0,7.0,56,0.00,,SKC,0.00,VWS V14.01,2013-03-29 14:28:00,
2013-03-29 10:33:00,42.6,27.6,30.15,ENE,57,0.0,7.0,55,0.00,,SKC,0.00,VWS V14.01,2013-03-29 14:33:00,
2013-03-29 10:38:00,42.9,27.9,30.15,NNE,26,5.0,8.0,55,0.00,,SKC,0.00,VWS V14.01,2013-03-29 14:38:00,
2013-03-29 10:43:00,42.9,27.9,30.15,NNE,18,0.0,8.0,55,0.00,,SKC,0.00,VWS V14.01,2013-03-29 14:43:00,
2013-03-29 10:49:00,43.2,27.7,30.15,ENE,68,0.0,8.0,54,0.00,,SKC,0.00,VWS V14.01,2013-03-29 14:49:00,
2013-03-29 10:54:00,44.1,28.1,30.15,ENE,69,0.0,8.0,53,0.00,,SKC,0.00,VWS V14.01,2013-03-29 14:54:00,
2013-03-29 10:59:00,44.5,27.5,30.15,ENE,76,4.0,8.0,51,0.00,,SKC,0.00,VWS V14.01,2013-03-29 14:59:00,
2013-03-29 11:00:00,46.8,23.8,30.14,East,80,2.0,11.0,40,0.00,,SKC,0.00,VWS V14.01,2013-03-29 15:00:00,
2013-03-29 11:04:00,44.9,27.9,30.14,ENE,68,8.0,8.0,51,0.00,,SKC,0.00,VWS V14.01,2013-03-29 15:04:00,
2013-03-29 11:09:00,45.4,26.9,30.14,NNE,12,0.0,9.0,48,0.00,,SKC,0.00,VWS V14.01,2013-03-29 15:09:00,
2013-03-29 11:14:00,45.7,25.0,30.14,East,79,6.0,10.0,44,0.00,,SKC,0.00,VWS V14.01,2013-03-29 15:14:00,
2013-03-29 11:19:00,45.5,24.3,30.14,ENE,67,4.0,10.0,43,0.00,,SKC,0.00,VWS V14.01,2013-03-29 15:19:00,
2013-03-29 11:24:00,45.5,24.3,30.14,ENE,66,2.0,10.0,43,0.00,,SKC,0.00,VWS V14.01,2013-03-29 15:24:00,
2013-03-29 11:29:00,45.8,23.5,30.14,North,360,0.0,10.0,41,0.00,,SKC,0.00,VWS V14.01,2013-03-29 15:29:00,
2013-03-29 11:34:00,46.4,24.0,30.15,NE,39,5.0,10.0,41,0.00,,SKC,0.00,VWS V14.01,2013-03-29 15:34:00,
2013-03-29 11:39:00,46.8,24.4,30.15,NNW,333,3.0,10.0,41,0.00,,SKC,0.00,VWS V14.01,2013-03-29 15:39:00,
2013-03-29 11:44:00,46.8,23.8,30.15,East,94,10.0,10.0,40,0.00,,SKC,0.00,VWS V14.01,2013-03-29 15:44:00,
2013-03-29 11:49:00,46.4,24.6,30.14,NE,44,1.0,10.0,42,0.00,,SKC,0.00,VWS V14.01,2013-03-29 15:49:00,
2013-03-29 11:54:00,46.5,24.1,30.14,East,82,4.0,10.0,41,0.00,,SKC,0.00,VWS V14.01,2013-03-29 15:54:00,
2013-03-29 11:59:00,47.0,24.0,30.14,East,79,8.0,11.0,40,0.00,,SKC,0.00,VWS V14.01,2013-03-29 15:59:00,
2013-03-29 12:00:00,47.6,20.6,30.13,NE,46,0.0,14.0,34,0.00,,SKC,0.00,VWS V14.01,2013-03-29 16:00:00,
2013-03-29 12:04:00,46.8,23.8,30.14,ENE,77,1.0,8.0,40,0.00,,SKC,0.00,VWS V14.01,2013-03-29 16:04:00,
2013-03-29 12:09:00,47.1,22.8,30.14,ENE,60,8.0,10.0,38,0.00,,SKC,0.00,VWS V14.01,2013-03-29 16:09:00,
2013-03-29 12:14:00,47.6,25.1,30.14,East,101,9.0,11.0,41,0.00,,SKC,0.00,VWS V14.01,2013-03-29 16:14:00,
2013-03-29 12:19:00,47.7,25.8,30.14,ESE,115,6.0,13.0,42,0.00,,SKC,0.00,VWS V14.01,2013-03-29 16:19:00,
2013-03-29 12:24:00,47.3,24.8,30.14,East,101,7.0,13.0,41,0.00,,SKC,0.00,VWS V14.01,2013-03-29 16:24:00,
2013-03-29 12:29:00,46.7,23.1,30.14,East,83,7.0,13.0,39,0.00,,SKC,0.00,VWS V14.01,2013-03-29 16:29:00,
2013-03-29 12:35:00,46.5,22.9,30.14,NW,321,10.0,13.0,39,0.00,,SKC,0.00,VWS V14.01,2013-03-29 16:35:00,
2013-03-29 12:40:00,47.3,23.6,30.14,East,79,8.0,13.0,39,0.00,,SKC,0.00,VWS V14.01,2013-03-29 16:40:00,
2013-03-29 12:44:00,47.3,21.7,30.13,ENE,63,1.0,13.0,36,0.00,,SKC,0.00,VWS V14.01,2013-03-29 16:44:00,
2013-03-29 12:50:00,46.8,21.3,30.13,NE,49,3.0,13.0,36,0.00,,SKC,0.00,VWS V14.01,2013-03-29 16:50:00,
2013-03-29 12:55:00,46.8,22.5,30.13,NE,40,11.0,14.0,38,0.00,,SKC,0.00,VWS V14.01,2013-03-29 16:55:00,
2013-03-29 13:00:00,47.4,21.1,30.13,NE,46,3.0,14.0,35,0.00,,SKC,0.00,VWS V14.01,2013-03-29 17:00:00,
2013-03-29 13:05:00,48.0,21.7,30.13,NE,35,4.0,6.0,35,0.00,,SKC,0.00,VWS V14.01,2013-03-29 17:05:00,
2013-03-29 13:10:00,48.5,20.7,30.13,East,82,9.0,11.0,33,0.00,,SKC,0.00,VWS V14.01,2013-03-29 17:10:00,
2013-03-29 13:15:00,48.3,20.5,30.12,ENE,74,8.0,12.0,33,0.00,,SKC,0.00,VWS V14.01,2013-03-29 17:15:00,
2013-03-29 13:20:00,47.7,20.0,30.12,NNE,17,0.0,12.0,33,0.00,,SKC,0.00,VWS V14.01,2013-03-29 17:20:00,
2013-03-29 13:25:00,48.6,22.2,30.12,East,99,1.0,12.0,35,0.00,,SKC,0.00,VWS V14.01,2013-03-29 17:25:00,
2013-03-29 13:30:00,48.6,20.8,30.11,ENE,70,0.0,12.0,33,0.00,,SKC,0.00,VWS V14.01,2013-03-29 17:30:00,
2013-03-29 13:35:00,48.2,20.5,30.11,NE,44,0.0,12.0,33,0.00,,SKC,0.00,VWS V14.01,2013-03-29 17:35:00,
2013-03-29 13:41:00,48.8,22.4,30.11,NE,46,5.0,12.0,35,0.00,,SKC,0.00,VWS V14.01,2013-03-29 17:41:00,
2013-03-29 13:46:00,48.9,21.8,30.11,ENE,65,8.0,12.0,34,0.00,,SKC,0.00,VWS V14.01,2013-03-29 17:46:00,
2013-03-29 13:51:00,48.6,22.2,30.11,ENE,70,7.0,12.0,35,0.00,,SKC,0.00,VWS V14.01,2013-03-29 17:51:00,
2013-03-29 13:56:00,48.6,20.8,30.11,ENE,62,9.0,13.0,33,0.00,,SKC,0.00,VWS V14.01,2013-03-29 17:56:00,
2013-03-29 14:00:00,49.6,22.4,30.09,ENE,70,8.0,15.0,34,0.00,,SKC,0.00,VWS V14.01,2013-03-29 18:00:00,
2013-03-29 14:01:00,48.2,21.2,30.11,ENE,76,7.0,9.0,34,0.00,,SKC,0.00,VWS V14.01,2013-03-29 18:01:00,
2013-03-29 14:06:00,48.6,20.8,30.11,NE,40,0.0,9.0,33,0.00,,SKC,0.00,VWS V14.01,2013-03-29 18:06:00,
2013-03-29 14:11:00,49.5,20.9,30.11,East,79,7.0,15.0,32,0.00,,SKC,0.00,VWS V14.01,2013-03-29 18:11:00,
2013-03-29 14:16:00,49.4,21.5,30.10,North,5,2.0,15.0,33,0.00,,SKC,0.00,VWS V14.01,2013-03-29 18:16:00,
2013-03-29 14:22:00,49.8,23.3,30.10,East,80,7.0,15.0,35,0.00,,SKC,0.00,VWS V14.01,2013-03-29 18:22:00,
2013-03-29 14:27:00,49.6,23.1,30.10,NNE,30,10.0,15.0,35,0.00,,SKC,0.00,VWS V14.01,2013-03-29 18:27:00,
2013-03-29 14:32:00,50.1,22.1,30.09,NE,37,8.0,15.0,33,0.00,,SKC,0.00,VWS V14.01,2013-03-29 18:32:00,
2013-03-29 14:37:00,50.8,22.0,30.09,ENE,76,10.0,15.0,32,0.00,,SKC,0.00,VWS V14.01,2013-03-29 18:37:00,
2013-03-29 14:42:00,50.4,23.1,30.09,East,86,9.0,15.0,34,0.00,,SKC,0.00,VWS V14.01,2013-03-29 18:42:00,
2013-03-29 14:47:00,50.2,22.2,30.09,NE,36,7.0,15.0,33,0.00,,SKC,0.00,VWS V14.01,2013-03-29 18:47:00,
2013-03-29 14:52:00,50.1,20.7,30.09,NE,54,6.0,15.0,31,0.00,,SKC,0.00,VWS V14.01,2013-03-29 18:52:00,
2013-03-29 14:57:00,49.9,22.0,30.09,NE,34,5.0,15.0,33,0.00,,SKC,0.00,VWS V14.01,2013-03-29 18:57:00,
2013-03-29 15:00:00,49.1,22.0,30.07,NNE,30,0.0,15.0,34,0.00,,SKC,0.00,VWS V14.01,2013-03-29 19:00:00,
2013-03-29 15:02:00,49.2,21.3,30.09,ENE,68,6.0,14.0,33,0.00,,SKC,0.00,VWS V14.01,2013-03-29 19:02:00,
2013-03-29 15:07:00,48.3,22.6,30.09,NE,53,2.0,15.0,36,0.00,,SKC,0.00,VWS V14.01,2013-03-29 19:07:00,
2013-03-29 15:12:00,48.3,22.6,30.09,East,84,4.0,15.0,36,0.00,,SKC,0.00,VWS V14.01,2013-03-29 19:12:00,
2013-03-29 15:17:00,49.1,22.0,30.08,East,84,9.0,15.0,34,0.00,,SKC,0.00,VWS V14.01,2013-03-29 19:17:00,
2013-03-29 15:22:00,49.5,23.7,30.08,East,96,11.0,15.0,36,0.00,,SKC,0.00,VWS V14.01,2013-03-29 19:22:00,
2013-03-29 15:27:00,49.9,23.4,30.08,NE,49,7.0,15.0,35,0.00,,SKC,0.00,VWS V14.01,2013-03-29 19:27:00,
2013-03-29 15:32:00,50.2,21.5,30.08,East,81,11.0,15.0,32,0.00,,SKC,0.00,VWS V14.01,2013-03-29 19:32:00,
2013-03-29 15:37:00,49.9,20.5,30.08,NE,44,0.0,15.0,31,0.00,,SKC,0.00,VWS V14.01,2013-03-29 19:37:00,
2013-03-29 15:42:00,50.5,21.0,30.08,NNE,28,9.0,15.0,31,0.00,,SKC,0.00,VWS V14.01,2013-03-29 19:42:00,
2013-03-29 15:48:00,51.0,20.7,30.07,ENE,59,6.0,15.0,30,0.00,,SKC,0.00,VWS V14.01,2013-03-29 19:48:00,
2013-03-29 15:53:00,50.1,19.9,30.07,NE,42,0.0,15.0,30,0.00,,SKC,0.00,VWS V14.01,2013-03-29 19:53:00,
2013-03-29 15:58:00,49.2,20.6,30.07,ENE,65,3.0,15.0,32,0.00,,SKC,0.00,VWS V14.01,2013-03-29 19:58:00,
2013-03-29 16:00:00,48.3,21.9,30.07,East,93,10.0,20.0,35,0.00,,SKC,0.00,VWS V14.01,2013-03-29 20:00:00,
2013-03-29 16:03:00,49.4,22.2,30.07,East,91,6.0,11.0,34,0.00,,SKC,0.00,VWS V14.01,2013-03-29 20:03:00,
2013-03-29 16:08:00,50.1,22.1,30.07,NE,35,6.0,14.0,33,0.00,,SKC,0.00,VWS V14.01,2013-03-29 20:08:00,
2013-03-29 16:13:00,50.4,23.1,30.07,ENE,66,6.0,14.0,34,0.00,,SKC,0.00,VWS V14.01,2013-03-29 20:13:00,
2013-03-29 16:18:00,50.1,22.1,30.07,NNE,17,7.0,14.0,33,0.00,,SKC,0.00,VWS V14.01,2013-03-29 20:18:00,
2013-03-29 16:23:00,50.5,21.0,30.07,ENE,71,7.0,14.0,31,0.00,,SKC,0.00,VWS V14.01,2013-03-29 20:23:00,
2013-03-29 16:28:00,50.2,21.5,30.07,NNE,22,0.0,14.0,32,0.00,,SKC,0.00,VWS V14.01,2013-03-29 20:28:00,
2013-03-29 16:34:00,50.2,22.2,30.07,ENE,58,6.0,14.0,33,0.00,,SKC,0.00,VWS V14.01,2013-03-29 20:34:00,
2013-03-29 16:39:00,49.5,20.1,30.07,ENE,61,0.0,14.0,31,0.00,,SKC,0.00,VWS V14.01,2013-03-29 20:39:00,
2013-03-29 16:44:00,49.1,22.6,30.07,East,89,7.0,14.0,35,0.00,,SKC,0.00,VWS V14.01,2013-03-29 20:44:00,
2013-03-29 16:49:00,49.1,22.6,30.07,ESE,103,18.0,20.0,35,0.00,,SKC,0.00,VWS V14.01,2013-03-29 20:49:00,
2013-03-29 16:54:00,49.1,22.0,30.07,East,90,9.0,20.0,34,0.00,,SKC,0.00,VWS V14.01,2013-03-29 20:54:00,
2013-03-29 16:59:00,48.5,22.1,30.07,ESE,116,10.0,20.0,35,0.00,,SKC,0.00,VWS V14.01,2013-03-29 20:59:00,
2013-03-29 17:00:00,47.3,21.7,30.07,ENE,74,2.0,19.0,36,0.00,,SKC,0.00,VWS V14.01,2013-03-29 21:00:00,
2013-03-29 17:04:00,48.3,21.9,30.07,East,89,14.0,19.0,35,0.00,,SKC,0.00,VWS V14.01,2013-03-29 21:04:00,
2013-03-29 17:09:00,47.9,22.9,30.07,East,89,13.0,19.0,37,0.00,,SKC,0.00,VWS V14.01,2013-03-29 21:09:00,
2013-03-29 17:14:00,48.2,22.5,30.07,East,82,6.0,19.0,36,0.00,,SKC,0.00,VWS V14.01,2013-03-29 21:14:00,
2013-03-29 17:19:00,48.5,21.4,30.06,East,89,11.0,19.0,34,0.00,,SKC,0.00,VWS V14.01,2013-03-29 21:19:00,
2013-03-29 17:24:00,48.0,21.7,30.06,East,96,9.0,19.0,35,0.00,,SKC,0.00,VWS V14.01,2013-03-29 21:24:00,
2013-03-29 17:29:00,47.9,22.2,30.06,ENE,70,8.0,19.0,36,0.00,,SKC,0.00,VWS V14.01,2013-03-29 21:29:00,
2013-03-29 17:34:00,48.2,22.5,30.07,East,89,10.0,19.0,36,0.00,,SKC,0.00,VWS V14.01,2013-03-29 21:34:00,
2013-03-29 17:39:00,48.2,22.5,30.07,ESE,105,8.0,19.0,36,0.00,,SKC,0.00,VWS V14.01,2013-03-29 21:39:00,
2013-03-29 17:44:00,48.0,21.7,30.07,East,87,6.0,19.0,35,0.00,,SKC,0.00,VWS V14.01,2013-03-29 21:44:00,
2013-03-29 17:49:00,47.6,23.3,30.07,ENE,62,5.0,19.0,38,0.00,,SKC,0.00,VWS V14.01,2013-03-29 21:49:00,
2013-03-29 17:54:00,47.3,23.0,30.07,East,91,8.0,19.0,38,0.00,,SKC,0.00,VWS V14.01,2013-03-29 21:54:00,
2013-03-29 17:59:00,47.3,22.4,30.07,ENE,67,7.0,19.0,37,0.00,,SKC,0.00,VWS V14.01,2013-03-29 21:59:00,
2013-03-29 18:00:00,46.2,23.2,30.08,ENE,68,5.0,16.0,40,0.00,,SKC,0.00,VWS V14.01,2013-03-29 22:00:00,
2013-03-29 18:04:00,47.6,22.0,30.07,East,95,9.0,12.0,36,0.00,,SKC,0.00,VWS V14.01,2013-03-29 22:04:00,
2013-03-29 18:09:00,47.7,22.1,30.07,ESE,103,10.0,15.0,36,0.00,,SKC,0.00,VWS V14.01,2013-03-29 22:09:00,
2013-03-29 18:14:00,47.4,23.1,30.07,ENE,75,7.0,16.0,38,0.00,,SKC,0.00,VWS V14.01,2013-03-29 22:14:00,
2013-03-29 18:19:00,47.4,21.1,30.07,NE,46,7.0,16.0,35,0.00,,SKC,0.00,VWS V14.01,2013-03-29 22:19:00,
2013-03-29 18:24:00,47.4,21.1,30.07,ENE,78,7.0,16.0,35,0.00,,SKC,0.00,VWS V14.01,2013-03-29 22:24:00,
2013-03-29 18:29:00,47.4,23.1,30.07,East,94,13.0,16.0,38,0.00,,SKC,0.00,VWS V14.01,2013-03-29 22:29:00,
2013-03-29 18:35:00,47.1,22.8,30.07,East,90,9.0,16.0,38,0.00,,SKC,0.00,VWS V14.01,2013-03-29 22:35:00,
2013-03-29 18:40:00,46.8,21.9,30.07,East,97,9.0,16.0,37,0.00,,SKC,0.00,VWS V14.01,2013-03-29 22:40:00,
2013-03-29 18:45:00,46.7,21.8,30.08,ENE,69,5.0,16.0,37,0.00,,SKC,0.00,VWS V14.01,2013-03-29 22:45:00,
2013-03-29 18:50:00,46.5,22.9,30.08,East,89,8.0,16.0,39,0.00,,SKC,0.00,VWS V14.01,2013-03-29 22:50:00,
2013-03-29 18:55:00,46.4,22.8,30.08,ESE,103,8.0,16.0,39,0.00,,SKC,0.00,VWS V14.01,2013-03-29 22:55:00,
2013-03-29 19:00:00,46.2,23.2,30.08,ENE,74,7.0,16.0,40,0.00,,SKC,0.00,VWS V14.01,2013-03-29 23:00:00,
2013-03-29 19:05:00,46.1,21.9,30.08,ENE,69,6.0,9.0,38,0.00,,SKC,0.00,VWS V14.01,2013-03-29 23:05:00,
2013-03-29 19:10:00,46.0,22.5,30.08,East,87,10.0,10.0,39,0.00,,SKC,0.00,VWS V14.01,2013-03-29 23:10:00,
2013-03-29 19:15:00,45.8,22.3,30.08,East,92,6.0,10.0,39,0.00,,SKC,0.00,VWS V14.01,2013-03-29 23:15:00,
2013-03-29 19:20:00,45.7,22.2,30.08,ENE,76,5.0,10.0,39,0.00,,SKC,0.00,VWS V14.01,2013-03-29 23:20:00,
2013-03-29 19:25:00,45.4,21.9,30.08,ENE,76,5.0,10.0,39,0.00,,SKC,0.00,VWS V14.01,2013-03-29 23:25:00,
2013-03-29 19:30:00,45.1,22.2,30.08,East,84,6.0,10.0,40,0.00,,SKC,0.00,VWS V14.01,2013-03-29 23:30:00,
2013-03-29 19:35:00,45.1,22.2,30.08,East,82,4.0,10.0,40,0.00,,SKC,0.00,VWS V14.01,2013-03-29 23:35:00,
2013-03-29 19:40:00,44.8,22.0,30.08,East,98,4.0,10.0,40,0.00,,SKC,0.00,VWS V14.01,2013-03-29 23:40:00,
2013-03-29 19:45:00,44.3,22.1,30.08,East,90,4.0,10.0,41,0.00,,SKC,0.00,VWS V14.01,2013-03-29 23:45:00,
2013-03-29 19:50:00,43.9,22.3,30.08,East,88,6.0,10.0,42,0.00,,SKC,0.00,VWS V14.01,2013-03-29 23:50:00,
2013-03-29 19:55:00,43.8,22.2,30.08,East,88,0.0,10.0,42,0.00,,SKC,0.00,VWS V14.01,2013-03-29 23:55:00,
2013-03-29 20:00:00,43.6,22.0,30.08,East,88,2.0,3.0,42,0.00,,SKC,0.00,VWS V14.01,2013-03-30 00:00:00,
2013-03-29 20:06:00,43.5,21.4,30.08,East,88,0.0,4.0,41,0.00,,SKC,0.00,VWS V14.01,2013-03-30 00:06:00,
2013-03-29 20:11:00,43.2,21.7,30.08,East,88,0.0,4.0,42,0.00,,SKC,0.00,VWS V14.01,2013-03-30 00:11:00,
2013-03-29 20:16:00,43.2,21.7,30.08,East,88,0.0,4.0,42,0.00,,SKC,0.00,VWS V14.01,2013-03-30 00:16:00,
2013-03-29 20:21:00,43.1,21.6,30.08,East,88,5.0,5.0,42,0.00,,SKC,0.00,VWS V14.01,2013-03-30 00:21:00,
2013-03-29 20:26:00,43.1,21.6,30.08,East,88,0.0,6.0,42,0.00,,SKC,0.00,VWS V14.01,2013-03-30 00:26:00,
2013-03-29 20:31:00,42.9,21.4,30.09,East,88,0.0,6.0,42,0.00,,SKC,0.00,VWS V14.01,2013-03-30 00:31:00,
2013-03-29 20:36:00,42.8,21.9,30.09,East,88,0.0,6.0,43,0.00,,SKC,0.00,VWS V14.01,2013-03-30 00:36:00,
2013-03-29 20:42:00,42.6,21.1,30.09,East,88,4.0,6.0,42,0.00,,SKC,0.00,VWS V14.01,2013-03-30 00:42:00,
2013-03-29 20:47:00,42.6,21.1,30.09,East,93,5.0,7.0,42,0.00,,SKC,0.00,VWS V14.01,2013-03-30 00:47:00,
2013-03-29 20:52:00,42.6,20.6,30.09,East,94,4.0,7.0,41,0.00,,SKC,0.00,VWS V14.01,2013-03-30 00:52:00,
2013-03-29 20:57:00,42.5,20.5,30.09,East,94,0.0,7.0,41,0.00,,SKC,0.00,VWS V14.01,2013-03-30 00:57:00,
2013-03-29 21:00:00,40.8,17.2,30.11,ESE,105,0.0,7.0,38,0.00,,SKC,0.00,VWS V14.01,2013-03-30 01:00:00,
2013-03-29 21:02:00,42.3,20.3,30.10,East,94,5.0,5.0,41,0.00,,SKC,0.00,VWS V14.01,2013-03-30 01:02:00,
2013-03-29 21:07:00,42.3,20.3,30.10,East,94,0.0,6.0,41,0.00,,SKC,0.00,VWS V14.01,2013-03-30 01:07:00,
2013-03-29 21:12:00,42.1,20.1,30.10,East,96,0.0,6.0,41,0.00,,SKC,0.00,VWS V14.01,2013-03-30 01:12:00,
2013-03-29 21:17:00,41.8,19.3,30.09,East,96,5.0,6.0,40,0.00,,SKC,0.00,VWS V14.01,2013-03-30 01:17:00,
2013-03-29 21:22:00,41.8,18.7,30.09,East,97,0.0,6.0,39,0.00,,SKC,0.00,VWS V14.01,2013-03-30 01:22:00,
2013-03-29 21:27:00,41.6,19.1,30.09,ESE,105,4.0,7.0,40,0.00,,SKC,0.00,VWS V14.01,2013-03-30 01:27:00,
2013-03-29 21:32:00,41.5,18.4,30.10,ESE,105,2.0,7.0,39,0.00,,SKC,0.00,VWS V14.01,2013-03-30 01:32:00,
2013-03-29 21:37:00,41.5,18.4,30.10,ESE,105,3.0,7.0,39,0.00,,SKC,0.00,VWS V14.01,2013-03-30 01:37:00,
2013-03-29 21:42:00,41.2,18.1,30.10,ESE,105,0.0,7.0,39,0.00,,SKC,0.00,VWS V14.01,2013-03-30 01:42:00,
2013-03-29 21:47:00,41.1,18.0,30.11,ESE,105,0.0,7.0,39,0.00,,SKC,0.00,VWS V14.01,2013-03-30 01:47:00,
2013-03-29 21:52:00,40.9,17.3,30.11,ESE,105,0.0,7.0,38,0.00,,SKC,0.00,VWS V14.01,2013-03-30 01:52:00,
2013-03-29 21:58:00,40.8,17.2,30.11,ESE,105,0.0,7.0,38,0.00,,SKC,0.00,VWS V14.01,2013-03-30 01:58:00,
2013-03-29 22:00:00,38.6,17.5,30.11,ESE,105,0.0,2.0,42,0.00,,SKC,0.00,VWS V14.01,2013-03-30 02:00:00,
2013-03-29 22:03:00,40.8,17.2,30.11,ESE,105,0.0,2.0,38,0.00,,SKC,0.00,VWS V14.01,2013-03-30 02:03:00,
2013-03-29 22:08:00,40.6,17.0,30.11,ESE,105,0.0,2.0,38,0.00,,SKC,0.00,VWS V14.01,2013-03-30 02:08:00,
2013-03-29 22:13:00,40.3,17.3,30.11,ESE,105,0.0,2.0,39,0.00,,SKC,0.00,VWS V14.01,2013-03-30 02:13:00,
2013-03-29 22:18:00,40.1,17.1,30.11,ESE,105,0.0,2.0,39,0.00,,SKC,0.00,VWS V14.01,2013-03-30 02:18:00,
2013-03-29 22:23:00,40.1,17.1,30.11,ESE,105,0.0,2.0,39,0.00,,SKC,0.00,VWS V14.01,2013-03-30 02:23:00,
2013-03-29 22:28:00,39.9,17.0,30.11,ESE,105,0.0,2.0,39,0.00,,SKC,0.00,VWS V14.01,2013-03-30 02:28:00,
2013-03-29 22:33:00,39.8,17.5,30.11,ESE,105,0.0,2.0,40,0.00,,SKC,0.00,VWS V14.01,2013-03-30 02:33:00,
2013-03-29 22:38:00,39.5,17.2,30.11,ESE,105,0.0,2.0,40,0.00,,SKC,0.00,VWS V14.01,2013-03-30 02:38:00,
2013-03-29 22:43:00,39.3,17.0,30.11,ESE,105,0.0,2.0,40,0.00,,SKC,0.00,VWS V14.01,2013-03-30 02:43:00,
2013-03-29 22:48:00,39.2,16.9,30.11,ESE,105,0.0,2.0,40,0.00,,SKC,0.00,VWS V14.01,2013-03-30 02:48:00,
2013-03-29 22:53:00,38.9,17.2,30.11,ESE,105,0.0,2.0,41,0.00,,SKC,0.00,VWS V14.01,2013-03-30 02:53:00,
2013-03-29 22:58:00,38.6,17.5,30.11,ESE,105,0.0,2.0,42,0.00,,SKC,0.00,VWS V14.01,2013-03-30 02:58:00,
2013-03-29 22:59:00,35.8,18.0,30.10,ESE,105,0.0,0.0,48,0.00,,SKC,0.00,VWS V14.01,2013-03-30 02:59:00,
2013-03-29 23:00:00,35.8,18.0,30.10,ESE,105,0.0,0.0,48,0.00,,SKC,0.00,VWS V14.01,2013-03-30 03:00:00,
2013-03-29 23:01:00,35.8,18.0,30.10,ESE,105,0.0,0.0,48,0.00,,SKC,0.00,VWS V14.01,2013-03-30 03:01:00,
2013-03-29 23:02:00,35.8,18.0,30.10,ESE,105,0.0,0.0,48,0.00,,SKC,0.00,VWS V14.01,2013-03-30 03:02:00,
2013-03-29 23:03:00,35.9,18.1,30.10,ESE,105,0.0,0.0,48,0.00,,SKC,0.00,VWS V14.01,2013-03-30 03:03:00,
2013-03-29 23:04:00,38.5,17.4,30.11,ESE,105,0.0,0.0,42,0.00,,SKC,0.00,VWS V14.01,2013-03-30 03:04:00,
2013-03-29 23:05:00,35.9,18.1,30.10,ESE,105,0.0,0.0,48,0.00,,SKC,0.00,VWS V14.01,2013-03-30 03:05:00,
2013-03-29 23:06:00,35.9,17.6,30.10,ESE,105,0.0,0.0,47,0.00,,SKC,0.00,VWS V14.01,2013-03-30 03:06:00,
2013-03-29 23:07:00,35.8,17.6,30.10,ESE,105,0.0,0.0,47,0.00,,SKC,0.00,VWS V14.01,2013-03-30 03:07:00,
2013-03-29 23:08:00,35.9,17.6,30.10,ESE,105,0.0,0.0,47,0.00,,SKC,0.00,VWS V14.01,2013-03-30 03:08:00,
2013-03-29 23:09:00,38.5,17.4,30.11,ESE,105,0.0,0.0,42,0.00,,SKC,0.00,VWS V14.01,2013-03-30 03:09:00,
2013-03-29 23:10:00,35.8,17.6,30.10,ESE,105,0.0,0.0,47,0.00,,SKC,0.00,VWS V14.01,2013-03-30 03:10:00,
2013-03-29 23:11:00,35.8,17.6,30.10,ESE,105,0.0,0.0,47,0.00,,SKC,0.00,VWS V14.01,2013-03-30 03:11:00,
2013-03-29 23:12:00,35.8,17.6,30.10,ESE,105,0.0,0.0,47,0.00,,SKC,0.00,VWS V14.01,2013-03-30 03:12:00,
2013-03-29 23:13:00,35.8,17.6,30.10,ESE,105,0.0,0.0,47,0.00,,SKC,0.00,VWS V14.01,2013-03-30 03:13:00,
2013-03-29 23:14:00,38.5,17.4,30.11,ESE,105,0.0,0.0,42,0.00,,SKC,0.00,VWS V14.01,2013-03-30 03:14:00,
2013-03-29 23:15:00,35.8,17.6,30.10,ESE,105,0.0,0.0,47,0.00,,SKC,0.00,VWS V14.01,2013-03-30 03:15:00,
2013-03-29 23:16:00,35.6,17.9,30.10,ESE,105,0.0,0.0,48,0.00,,SKC,0.00,VWS V14.01,2013-03-30 03:16:00,
2013-03-29 23:17:00,35.5,18.2,30.10,ESE,105,0.0,0.0,49,0.00,,SKC,0.00,VWS V14.01,2013-03-30 03:17:00,
2013-03-29 23:18:00,35.5,18.7,30.10,ESE,105,0.0,0.0,50,0.00,,SKC,0.00,VWS V14.01,2013-03-30 03:18:00,
2013-03-29 23:19:00,38.2,17.7,30.11,ESE,105,0.0,0.0,43,0.00,,SKC,0.00,VWS V14.01,2013-03-30 03:19:00,
2013-03-29 23:24:00,37.6,18.2,30.11,ESE,105,0.0,0.0,45,0.00,,SKC,0.00,VWS V14.01,2013-03-30 03:24:00,
2013-03-29 23:29:00,36.9,19.5,30.11,ESE,105,0.0,0.0,49,0.00,,SKC,0.00,VWS V14.01,2013-03-30 03:29:00,
2013-03-29 23:34:00,36.3,19.0,30.10,ESE,105,0.0,0.0,49,0.00,,SKC,0.00,VWS V14.01,2013-03-30 03:34:00,
2013-03-29 23:39:00,36.2,18.9,30.10,ESE,105,0.0,0.0,49,0.00,,SKC,0.00,VWS V14.01,2013-03-30 03:39:00,
2013-03-29 23:44:00,36.2,19.4,30.10,ESE,105,0.0,0.0,50,0.00,,SKC,0.00,VWS V14.01,2013-03-30 03:44:00,
2013-03-29 23:49:00,36.0,19.2,30.10,ESE,105,0.0,0.0,50,0.00,,SKC,0.00,VWS V14.01,2013-03-30 03:49:00,
2013-03-29 23:54:00,35.9,19.1,30.10,ESE,105,0.0,0.0,50,0.00,,SKC,0.00,VWS V14.01,2013-03-30 03:54:00,
2013-03-29 23:59:00,35.8,18.0,30.10,ESE,105,0.0,0.0,48,0.00,,SKC,0.00,VWS V14.01,2013-03-30 03:59:00,